Location: São Paulo
(23.5507°S, 46.6334°W)
Time: 07:41:22
(UTC-03:00)

Vanguard 2 Rocket - Pass Details

Date: 25 February 2026
Orbit: 553 x 3286 km, 32.9° (Epoch: 7 March)

Event Time Altitude Azimuth Distance (km) Brightness Sun altitude
Rises 20:54:00 0° 306° (NW) 3,452 10.2 -30.3°
Reaches altitude 10° 20:56:56 10° 311° (NW) 2,242 9.1 -30.9°
Enters shadow 20:58:00 15° 314° (NW) 1,814 8.6 -31.1°
